TimeEST,TemperatureF,Dew PointF,Humidity,Sea Level PressureIn,VisibilityMPH,Wind Direction,Wind SpeedMPH,Gust SpeedMPH,PrecipitationIn,Events,Conditions,WindDirDegrees,DateUTC
12:54 AM,24.1,21.0,88,30.12,7.0,Calm,Calm,-,N/A,,Mostly Cloudy,0,2013-03-06 05:54:00
1:54 AM,25.0,21.0,85,30.13,6.0,Calm,Calm,-,N/A,,Overcast,0,2013-03-06 06:54:00
2:54 AM,24.1,19.9,84,30.12,6.0,Calm,Calm,-,N/A,,Mostly Cloudy,0,2013-03-06 07:54:00
3:54 AM,23.0,19.9,88,30.12,7.0,Calm,Calm,-,N/A,,Scattered Clouds,0,2013-03-06 08:54:00
4:54 AM,23.0,19.9,88,30.13,6.0,Calm,Calm,-,N/A,,Partly Cloudy,0,2013-03-06 09:54:00
5:12 AM,21.2,19.4,93,30.12,6.0,Calm,Calm,-,N/A,,Scattered Clouds,0,2013-03-06 10:12:00
5:54 AM,24.1,21.0,88,30.14,7.0,Calm,Calm,-,N/A,,Mostly Cloudy,0,2013-03-06 10:54:00
6:54 AM,24.1,21.0,88,30.16,5.0,Calm,Calm,-,N/A,,Mostly Cloudy,0,2013-03-06 11:54:00
7:54 AM,28.0,24.1,85,30.18,5.0,Calm,Calm,-,N/A,,Mostly Cloudy,0,2013-03-06 12:54:00
8:54 AM,30.9,26.1,82,30.18,6.0,Calm,Calm,-,N/A,,Mostly Cloudy,0,2013-03-06 13:54:00
9:54 AM,35.1,27.0,72,30.19,8.0,NW,3.5,-,N/A,,Mostly Cloudy,310,2013-03-06 14:54:00
10:54 AM,44.1,28.0,53,30.17,10.0,WNW,3.5,-,N/A,,Scattered Clouds,290,2013-03-06 15:54:00
11:54 AM,43.0,26.1,51,30.17,10.0,East,11.5,-,N/A,,Mostly Cloudy,100,2013-03-06 16:54:00
12:54 PM,43.0,24.1,47,30.17,10.0,ENE,12.7,21.9,N/A,,Mostly Cloudy,70,2013-03-06 17:54:00
1:54 PM,42.1,23.0,47,30.16,10.0,East,9.2,-,N/A,,Overcast,90,2013-03-06 18:54:00
2:54 PM,41.0,23.0,49,30.17,10.0,East,8.1,-,N/A,,Mostly Cloudy,80,2013-03-06 19:54:00
3:54 PM,39.9,21.0,47,30.19,10.0,East,4.6,-,N/A,,Overcast,90,2013-03-06 20:54:00
4:54 PM,39.9,19.9,45,30.18,10.0,East,6.9,-,N/A,,Overcast,90,2013-03-06 21:54:00
5:54 PM,39.0,21.0,49,30.19,10.0,NNE,5.8,-,N/A,,Overcast,30,2013-03-06 22:54:00
6:54 PM,37.9,21.9,53,30.20,10.0,NNE,5.8,-,N/A,,Overcast,20,2013-03-06 23:54:00
7:54 PM,37.9,21.9,53,30.20,10.0,East,5.8,-,N/A,,Overcast,80,2013-03-07 00:54:00
8:54 PM,37.9,21.9,53,30.20,10.0,ENE,8.1,-,N/A,,Overcast,70,2013-03-07 01:54:00
9:54 PM,37.0,21.0,52,30.19,10.0,East,6.9,-,N/A,,Overcast,80,2013-03-07 02:54:00
10:54 PM,36.0,21.0,55,30.19,10.0,ENE,5.8,-,N/A,,Overcast,70,2013-03-07 03:54:00
11:54 PM,35.1,19.9,54,30.19,10.0,East,5.8,-,N/A,,Overcast,80,2013-03-07 04:54:00